Location: Newark
(33.6333°S, 78.8500°W)
Time: 19:52:42
(UTC+00:00)

Tiros 1 despin weight - Pass Details

Date: 20 September 2019
Orbit: 594 x 643 km, 48.2° (Epoch: 15 October)

Event Time Altitude Azimuth Distance (km) Brightness Sun altitude
Rises 06:38:45 0° 268° (W) 2,896 - -51.3°
Reaches altitude 10° 06:41:31 10° 252° (WSW) 2,004 - -51.0°
Maximum altitude 06:45:05 22° 201° (SSW) 1,406 - -50.5°
Drops below altitude 10° 06:48:42 10° 150° (SSE) 2,035 - -50.0°
Sets 06:51:32 0° 134° (SE) 2,954 - -49.6°
